Погода в Песках

Украина / Харьковская область     49°58′53″N   37°54′26″E
темп.,
°C
ветер,
м/с
пор.,
м/с
влажн.,
%
обл.,
%
осадки,
мм/ч
давл.,
гПа
погр.,
м
24 мая, вт
вт2400:00+6в117915 0.0 100910
03:00+5сз11825 0.0 101010
06:00+8сз238031 0.0 101097
09:00+13зсз34575 0.0 1010790
12:00+16сз444181 0.0 10102400
15:00+17з454388 0.0 10102114
18:00+14з5962100 0.0 1011346
21:00+11з346875 0.0 101246
25 мая, ср
ср2500:00+8зсз228249 0.0 101412
03:00+7сз22865 0.0 101523
06:00+8зсз26795 0.0 1015148
09:00+15зсз56625 0.0 1016757
12:00+17сз674863 0.2 10162039
15:00+19ссз584379 0.2 10162509
18:00+17ссз47545 0.0 10161356
21:00+11зсз117526 0.0 101810
26 мая, чт
чт2600:00+10зюз22777 0.0 101811
03:00+12зюз357120 0.0 101894
06:00+11зюз26845 0.0 1017147
09:00+17юз5759100 0.0 1017584
12:00+20юз7947100 0.0 10152102
15:00+15зюз51275100 0.6 1013531
18:00+11юз81586100 1.9 1013810
21:00+12зюз7139344 2.0 1013593
27 мая, пт
пт2700:00+11юз411965 0.0 1013276
03:00+11юз513965 0.0 1013312
06:00+11зюз513915 0.0 1012368
09:00+17з8126883 0.1 10121106
12:00+18з7116652 1.1 10121376
15:00+20з795850 1.8 10121781
18:00+18зсз59685 0.5 10121327
21:00+13зюз33859 0.5 101325
28 мая, сб
сб2800:00+12ююз479132 0.0 1012102
03:00+12ююз512885 0.0 1010230
06:00+14ююз615835 0.0 1008399
09:00+17зюз71379100 0.1 1008971
12:00+14сз4792100 0.9 1010451
15:00+13юз379499 3.3 1011348
18:00+17з586899 0.1 10111023
21:00+14зюз377599 0.1 1013143